Dades meteomassalio
 
Diari Summary for Diciembre 18, 2018 Units:  Metric    English   Both
« Previous Day
Next Day »
Diari Semanal Mensual Anual Personalitzat
  Actual: Maxima: Minima: Mijana:
Temperatura: -15.9 °C -17.8 °C -19.3 °C -16.8 °C
Rosada: -16.8 °C -17.8 °C -19.9 °C -17.8 °C
Humitat: 89 % Humidity % 72 % 88 %
Velocitat del vent: 0 km/h 0 km/h 0 km/h 0 km/h
Racha vent: 0 km/h 0 km/h - -
Vent:Calm - - North
Pressio: 34723.4 hPa 0 hPa 34679.4 hPa -
Pluja: 7.62 mm      
Historical Graphs
 
 
Tabular Data for Diciembre 18, 2018
Time Temperature Dew Point Pressure Wind Wind Speed Wind Gust Humidity Rainfall Rate (Hourly) solar Conditions
-17.8 °C -17.8 °C 0 hPa Calm     Humidity % 0 mm SolarRadiationWatts/m^2 W/m2 Conditions
00:04 -17.8 °C -18.5 °C 34930 hPa Calm     91 % 0 mm 0.00 W/m2 CLR
00:09 -17.8 °C -18.5 °C 34936.7 hPa Calm     91 % 0 mm 0.00 W/m2 CLR
00:14 -17.8 °C -18.5 °C 34936.7 hPa Calm     91 % 0 mm 0.00 W/m2 CLR
00:19 -17.8 °C -18.5 °C 34933.4 hPa Calm     91 % 0 mm 0.00 W/m2 CLR
00:24 -17.8 °C -18.5 °C 34933.4 hPa Calm     91 % 0 mm 0.00 W/m2 CLR
00:29 -17.8 °C -18.5 °C 34930 hPa Calm     91 % 0 mm 0.00 W/m2 CLR
00:34 -17.8 °C -18.5 °C 34926.6 hPa Calm     91 % 0 mm 0.00 W/m2 CLR
00:39 -17.8 °C -18.5 °C 34923.2 hPa Calm     91 % 0 mm 0.00 W/m2 CLR
00:44 -17.8 °C -18.5 °C 34923.2 hPa Calm     91 % 0 mm 0.00 W/m2 CLR
00:49 -17.8 °C -18.5 °C 34923.2 hPa Calm     91 % 0 mm 0.00 W/m2 CLR
00:54 -17.8 °C -18.5 °C 34923.2 hPa Calm     91 % 0 mm 0.00 W/m2 CLR
00:59 -17.8 °C -18.5 °C 34919.8 hPa Calm     91 % 0 mm 0.00 W/m2 CLR
01:04 -17.8 °C -18.5 °C 34913 hPa Calm     91 % 0 mm 0.00 W/m2 CLR
01:09 -17.8 °C -18.4 °C 34913 hPa Calm     92 % 0 mm 0.00 W/m2 CLR
01:14 -17.8 °C -18.4 °C 34913 hPa Calm     92 % 0 mm 0.00 W/m2 CLR
01:19 -17.8 °C -18.5 °C 34909.7 hPa Calm     91 % 0 mm 0.00 W/m2 CLR
01:24 -17.8 °C -18.5 °C 34909.7 hPa Calm     91 % 0 mm 0.00 W/m2 CLR
01:29 -18.1 °C -18.8 °C 34906.3 hPa Calm     91 % 0 mm 0.00 W/m2 CLR
01:34 -18.1 °C -18.8 °C 34909.7 hPa Calm     91 % 0 mm 0.00 W/m2 CLR
01:39 -18.1 °C -18.8 °C 34899.5 hPa Calm     91 % 0 mm 0.00 W/m2 CLR
01:44 -18.1 °C -18.8 °C 34896.1 hPa Calm     91 % 0 mm 0.00 W/m2 CLR
01:49 -18.1 °C -18.8 °C 34892.7 hPa Calm     91 % 0 mm 0.00 W/m2 CLR
01:54 -18.1 °C -18.8 °C 34896.1 hPa Calm     91 % 0 mm 0.00 W/m2 CLR
01:59 -18.1 °C -18.7 °C 34889.3 hPa Calm     92 % 0 mm 0.00 W/m2 CLR
02:04 -18.1 °C -18.8 °C 34896.1 hPa Calm     91 % 0 mm 0.00 W/m2 CLR
02:09 -18.1 °C -18.8 °C 34896.1 hPa Calm     91 % 0 mm 0.00 W/m2 CLR
02:14 -18.1 °C -18.8 °C 34896.1 hPa Calm     91 % 0 mm 0.00 W/m2 CLR
02:19 -18.1 °C -18.8 °C 34892.7 hPa Calm     91 % 0 mm 0.00 W/m2 CLR
02:24 -18.4 °C -19.1 °C 34896.1 hPa Calm     91 % 0 mm 0.00 W/m2 CLR
02:29 -18.4 °C -19 °C 34889.3 hPa Calm     92 % 0 mm 0.00 W/m2 CLR
02:34 -18.4 °C -19 °C 34892.7 hPa Calm     92 % 0 mm 0.00 W/m2 CLR
02:39 -18.4 °C -19 °C 34889.3 hPa Calm     92 % 0 mm 0.00 W/m2 CLR
02:44 -18.4 °C -19 °C 34889.3 hPa Calm     92 % 0 mm 0.00 W/m2 CLR
02:49 -18.4 °C -19 °C 34889.3 hPa Calm     92 % 0 mm 0.00 W/m2 CLR
02:54 -18.4 °C -19 °C 34896.1 hPa Calm     92 % 0 mm 0.00 W/m2 CLR
02:59 -18.4 °C -19 °C 34889.3 hPa Calm     92 % 0 mm 0.00 W/m2 CLR
03:04 -18.4 °C -19 °C 34896.1 hPa Calm     92 % 0 mm 0.00 W/m2 CLR
03:09 -18.4 °C -19 °C 34899.5 hPa Calm     92 % 0 mm 0.00 W/m2 CLR
03:14 -18.4 °C -19 °C 34902.9 hPa Calm     92 % 0 mm 0.00 W/m2 CLR
03:19 -18.4 °C -19 °C 34906.3 hPa Calm     92 % 0 mm 0.00 W/m2 CLR
03:24 -18.4 °C -19 °C 34909.7 hPa Calm     92 % 0 mm 0.00 W/m2 CLR
03:29 -18.4 °C -19 °C 34916.4 hPa Calm     92 % 0 mm 0.00 W/m2 CLR
03:34 -18.4 °C -19 °C 34916.4 hPa Calm     92 % 0 mm 0.00 W/m2 CLR
03:39 -18.4 °C -19 °C 34913 hPa Calm     92 % 0 mm 0.00 W/m2 CLR
03:44 -18.4 °C -19 °C 34916.4 hPa Calm     92 % 0 mm 0.00 W/m2 CLR
03:49 -18.7 °C -19.3 °C 34909.7 hPa Calm     92 % 0 mm 0.00 W/m2 CLR
03:54 -18.7 °C -19.3 °C 34902.9 hPa Calm     92 % 0 mm 0.00 W/m2 CLR
03:59 -18.7 °C -19.3 °C 34902.9 hPa Calm     92 % 0 mm 0.00 W/m2 CLR
04:04 -18.7 °C -19.3 °C 34899.5 hPa Calm     92 % 0 mm 0.00 W/m2 CLR
04:09 -19 °C -19.6 °C 34892.7 hPa Calm     92 % 0 mm 0.00 W/m2 CLR
04:14 -19 °C -19.6 °C 34892.7 hPa Calm     92 % 0 mm 0.00 W/m2 CLR
04:19 -18.7 °C -19.3 °C 34889.3 hPa Calm     92 % 0 mm 0.00 W/m2 CLR
04:24 -18.7 °C -19.3 °C 34882.6 hPa Calm     92 % 0 mm 0.00 W/m2 CLR
04:29 -19 °C -19.6 °C 34879.2 hPa Calm     92 % 0 mm 0.00 W/m2 CLR
04:34 -19 °C -19.6 °C 34872.4 hPa Calm     92 % 0 mm 0.00 W/m2 CLR
04:39 -19 °C -19.6 °C 34869 hPa Calm     92 % 0 mm 0.00 W/m2 CLR
04:44 -19 °C -19.6 °C 34869 hPa Calm     92 % 0 mm 0.00 W/m2 CLR
04:49 -19 °C -19.6 °C 34865.6 hPa Calm     92 % 0 mm 0.00 W/m2 CLR
04:54 -19 °C -19.6 °C 34862.3 hPa Calm     92 % 0 mm 0.00 W/m2 CLR
04:59 -19 °C -19.6 °C 34862.3 hPa Calm     92 % 0 mm 0.00 W/m2 CLR
05:04 -19 °C -19.6 °C 34862.3 hPa Calm     92 % 0 mm 0.00 W/m2 CLR
05:09 -19 °C -19.6 °C 34858.9 hPa Calm     92 % 0 mm 0.00 W/m2 CLR
05:14 -19 °C -19.6 °C 34855.5 hPa Calm     92 % 0 mm 0.00 W/m2 CLR
05:19 -19 °C -19.6 °C 34852.1 hPa Calm     92 % 0 mm 0.00 W/m2 CLR
05:24 -19 °C -19.6 °C 34852.1 hPa Calm     92 % 0 mm 0.00 W/m2 CLR
05:29 -19 °C -19.6 °C 34852.1 hPa Calm     92 % 0 mm 0.00 W/m2 CLR
05:34 -19.3 °C -19.9 °C 34852.1 hPa Calm     92 % 0 mm 0.00 W/m2 CLR
05:39 -19 °C -19.6 °C 34852.1 hPa Calm     92 % 0 mm 0.00 W/m2 CLR
05:44 -19.3 °C -19.9 °C 34855.5 hPa Calm     92 % 0 mm 0.00 W/m2 CLR
05:49 -19.3 °C -19.9 °C 34848.7 hPa Calm     92 % 0 mm 0.00 W/m2 CLR
05:54 -19.3 °C -19.9 °C 34845.3 hPa Calm     92 % 0 mm 0.00 W/m2 CLR
05:59 -19.3 °C -19.9 °C 34845.3 hPa Calm     92 % 0 mm 0.00 W/m2 CLR
06:04 -19.3 °C -19.9 °C 34838.6 hPa Calm     92 % 0 mm 0.00 W/m2 CLR
06:09 -19.3 °C -19.9 °C 34838.6 hPa Calm     92 % 0 mm 0.00 W/m2 CLR
06:14 -19.3 °C -19.9 °C 34841.9 hPa Calm     92 % 0 mm 0.00 W/m2 CLR
06:19 -19.3 °C -19.9 °C 34835.2 hPa Calm     92 % 0 mm 0.00 W/m2 CLR
06:24 -19.3 °C -19.9 °C 34835.2 hPa Calm     92 % 0 mm 0.00 W/m2 CLR
06:29 -19.3 °C -19.9 °C 34835.2 hPa Calm     92 % 0 mm 0.00 W/m2 CLR
06:34 -19.3 °C -19.9 °C 34828.4 hPa Calm     92 % 0 mm 0.00 W/m2 CLR
06:39 -19.3 °C -19.9 °C 34825 hPa Calm     92 % 0 mm 0.00 W/m2 CLR
06:44 -19 °C -19.6 °C 34825 hPa Calm     92 % 0 mm 0.00 W/m2 CLR
06:49 -19 °C -19.6 °C 34821.6 hPa Calm     92 % 0 mm 0.00 W/m2 CLR
06:54 -19 °C -19.6 °C 34825 hPa Calm     92 % 0 mm 0.00 W/m2 CLR
06:59 -19 °C -19.6 °C 34828.4 hPa Calm     92 % 0 mm 0.00 W/m2 CLR
07:04 -19 °C -19.6 °C 34828.4 hPa Calm     92 % 0 mm 0.00 W/m2 CLR
07:09 -19 °C -19.6 °C 34828.4 hPa Calm     92 % 0 mm 0.00 W/m2 CLR
07:14 -19 °C -19.6 °C 34825 hPa Calm     92 % 0 mm 0.00 W/m2 CLR
07:19 -19.3 °C -19.9 °C 34831.8 hPa Calm     92 % 0 mm 0.00 W/m2 CLR
07:24 -19.3 °C -19.9 °C 34828.4 hPa Calm     92 % 0 mm 0.00 W/m2 CLR
07:29 -19 °C -19.6 °C 34825 hPa Calm     92 % 0 mm 0.00 W/m2 CLR
07:34 -19 °C -19.6 °C 34828.4 hPa Calm     92 % 0 mm 0.00 W/m2 CLR
07:39 -19.3 °C -19.9 °C 34831.8 hPa Calm     92 % 0 mm 0.00 W/m2 CLR
07:44 -19.3 °C -19.9 °C 34835.2 hPa Calm     92 % 0 mm 0.00 W/m2 CLR
07:49 -19.3 °C -19.9 °C 34831.8 hPa Calm     92 % 0 mm 0.00 W/m2 CLR
07:54 -19.3 °C -19.9 °C 34828.4 hPa Calm     92 % 0 mm 0.00 W/m2 CLR
07:59 -19 °C -19.6 °C 34828.4 hPa Calm     92 % 0 mm 0.00 W/m2 CLR
08:04 -19 °C -19.6 °C 34825 hPa Calm     92 % 0 mm 0.00 W/m2 CLR
08:09 -19 °C -19.6 °C 34821.6 hPa Calm     92 % 0 mm 5.00 W/m2 OVC
08:14 -19 °C -19.6 °C 34825 hPa Calm     92 % 0 mm 5.00 W/m2 OVC
08:19 -19 °C -19.6 °C 34825 hPa Calm     92 % 0 mm 5.00 W/m2 OVC
08:24 -19 °C -19.6 °C 34821.6 hPa Calm     92 % 0 mm 5.00 W/m2 OVC
08:29 -19 °C -19.6 °C 34825 hPa Calm     92 % 0 mm 7.00 W/m2 OVC
08:34 -19 °C -19.6 °C 34828.4 hPa Calm     92 % 0 mm 11.00 W/m2 OVC
08:39 -19 °C -19.6 °C 34825 hPa Calm     92 % 0 mm 12.00 W/m2 OVC
08:44 -19 °C -19.6 °C 34828.4 hPa Calm     92 % 0 mm 16.00 W/m2 OVC
08:49 -19 °C -19.6 °C 34831.8 hPa Calm     92 % 0 mm 21.00 W/m2 OVC
08:54 -19 °C -19.6 °C 34831.8 hPa Calm     92 % 0 mm 28.00 W/m2 OVC
08:59 -19 °C -19.6 °C 34835.2 hPa Calm     92 % 0 mm 37.00 W/m2 OVC
09:04 -18.7 °C -19.3 °C 34835.2 hPa Calm     92 % 0 mm 40.00 W/m2 OVC
09:09 -18.7 °C -19.3 °C 34831.8 hPa Calm     92 % 0 mm 47.00 W/m2 OVC
09:14 -18.7 °C -19.3 °C 34828.4 hPa Calm     92 % 0 mm 49.00 W/m2 OVC
09:19 -18.7 °C -19.3 °C 34831.8 hPa Calm     92 % 0 mm 58.00 W/m2 OVC
09:24 -18.7 °C -19.3 °C 34825 hPa Calm     92 % 0 mm 72.00 W/m2 BKN
09:29 -18.4 °C -19 °C 34828.4 hPa Calm     92 % 0 mm 77.00 W/m2 SCT
09:34 -18.4 °C -19 °C 34828.4 hPa Calm     92 % 0 mm 88.00 W/m2 FEW
09:39 -18.4 °C -19 °C 34825 hPa Calm     92 % 0 mm 90.00 W/m2 FEW
09:44 -18.4 °C -19 °C 34821.6 hPa Calm     92 % 0 mm 86.00 W/m2 CLR
09:49 -18.1 °C -18.7 °C 34821.6 hPa Calm     92 % 0 mm 125.00 W/m2 CLR
09:54 -18.1 °C -18.7 °C 34825 hPa Calm     92 % 0 mm 139.00 W/m2 CLR
09:59 -18.1 °C -18.7 °C 34825 hPa Calm     92 % 0 mm 142.00 W/m2 CLR
10:04 -18.1 °C -18.7 °C 34821.6 hPa Calm     92 % 0 mm 165.00 W/m2 CLR
10:09 -17.8 °C -18.4 °C 34818.2 hPa Calm     92 % 0 mm 176.00 W/m2 CLR
10:14 -17.8 °C -18.3 °C 34814.9 hPa Calm     93 % 7.62 mm 188.00 W/m2 RA
10:19 -17.8 °C -18.4 °C 34811.5 hPa Calm     92 % 7.62 mm 153.00 W/m2 CLR
10:24 -17.8 °C -18.4 °C 34818.2 hPa Calm     92 % 7.62 mm 146.00 W/m2 CLR
10:29 -17.4 °C -18.1 °C 34811.5 hPa Calm     92 % 7.62 mm 134.00 W/m2 CLR
10:34 -17.4 °C -18.1 °C 34814.9 hPa Calm     92 % 7.62 mm 135.00 W/m2 CLR
10:39 -17.2 °C -17.8 °C 34818.2 hPa Calm     92 % 7.62 mm 149.00 W/m2 CLR
10:44 -17.2 °C -17.8 °C 34814.9 hPa Calm     92 % 7.62 mm 179.00 W/m2 CLR
10:49 -17.2 °C -17.8 °C 34814.9 hPa Calm     92 % 7.62 mm 158.00 W/m2 CLR
10:54 -16.8 °C -17.5 °C 34814.9 hPa Calm     92 % 7.62 mm 153.00 W/m2 CLR
10:59 -16.8 °C -17.5 °C 34811.5 hPa Calm     92 % 7.62 mm 158.00 W/m2 CLR
11:04 -16.8 °C -17.5 °C 34804.7 hPa Calm     92 % 7.62 mm 163.00 W/m2 CLR
11:09 -16.6 °C -17.2 °C 34811.5 hPa Calm     92 % 7.62 mm 178.00 W/m2 CLR
11:14 -16.6 °C -17.2 °C 34808.1 hPa Calm     92 % 0 mm 183.00 W/m2 CLR
11:19 -16.6 °C -17.3 °C 34808.1 hPa Calm     91 % 0 mm 246.00 W/m2 CLR
11:24 -16.6 °C -17.3 °C 34804.7 hPa Calm     91 % 0 mm 258.00 W/m2 CLR
11:29 -16.2 °C -17 °C 34797.9 hPa Calm     91 % 0 mm 156.00 W/m2 CLR
11:34 -16.2 °C -17 °C 34791.2 hPa Calm     91 % 0 mm 146.00 W/m2 CLR
11:39 -16.2 °C -17 °C 34791.2 hPa Calm     91 % 0 mm 172.00 W/m2 CLR
11:44 -15.9 °C -16.8 °C 34787.8 hPa Calm     90 % 0 mm 183.00 W/m2 CLR
11:49 -15.9 °C -16.8 °C 34787.8 hPa Calm     90 % 0 mm 185.00 W/m2 CLR
11:54 -15.9 °C -16.7 °C 34791.2 hPa Calm     91 % 0 mm 171.00 W/m2 CLR
11:59 -15.6 °C -16.3 °C 34794.5 hPa Calm     91 % 0 mm 195.00 W/m2 CLR
12:04 -15.6 °C -16.4 °C 34791.2 hPa Calm     90 % 0 mm 128.00 W/m2 CLR
12:09 -15.6 °C -16.4 °C 34794.5 hPa Calm     90 % 0 mm 107.00 W/m2 CLR
12:14 -15.6 °C -16.6 °C 34794.5 hPa Calm     89 % 0 mm 98.00 W/m2 CLR
12:19 -15.6 °C -16.6 °C 34791.2 hPa Calm     89 % 0 mm 113.00 W/m2 CLR
12:24 -15.6 °C -16.6 °C 34791.2 hPa Calm     89 % 0 mm 239.00 W/m2 CLR
12:29 -15.6 °C -16.6 °C 34787.8 hPa Calm     88 % 0 mm 399.00 W/m2 CLR
12:34 -15.3 °C -16.3 °C 34781 hPa Calm     88 % 0 mm 469.00 W/m2 CLR
12:39 -15 °C -16.1 °C 34777.6 hPa Calm     87 % 0 mm 540.00 W/m2 CLR
12:44 -15 °C -16.2 °C 34767.4 hPa Calm     86 % 0 mm 552.00 W/m2 CLR
12:49 -14.7 °C -16 °C 34770.8 hPa Calm     85 % 0 mm 522.00 W/m2 CLR
12:54 -14.4 °C -15.9 °C 34757.3 hPa Calm     83 % 0 mm 513.00 W/m2 CLR
12:59 -14.4 °C -15.8 °C 34753.9 hPa Calm     84 % 0 mm 524.00 W/m2 CLR
13:04 -14.1 °C -15.8 °C 34753.9 hPa Calm     81 % 0 mm 490.00 W/m2 CLR
13:09 -14.1 °C -15.9 °C 34743.7 hPa Calm     79 % 0 mm 427.00 W/m2 CLR
13:14 -14.1 °C -16.2 °C 34747.1 hPa Calm     77 % 0 mm 278.00 W/m2 CLR
13:19 -14.1 °C -16.3 °C 34750.5 hPa Calm     75 % 0 mm 158.00 W/m2 CLR
13:24 -14.1 °C -16.7 °C 34743.7 hPa Calm     72 % 0 mm 213.00 W/m2 CLR
13:29 -13.8 °C -16.2 °C 34737 hPa Calm     74 % 0 mm 246.00 W/m2 CLR
13:34 -13.8 °C -16.2 °C 34733.6 hPa Calm     74 % 0 mm 285.00 W/m2 CLR
13:39 -13.8 °C -16.2 °C 34733.6 hPa Calm     74 % 0 mm 473.00 W/m2 CLR
13:44 -13.4 °C -15.9 °C 34730.2 hPa Calm     74 % 0 mm 485.00 W/m2 CLR
13:49 -13.2 °C -15.4 °C 34726.8 hPa Calm     75 % 0 mm 422.00 W/m2 CLR
13:54 -13.2 °C -15.7 °C 34720 hPa Calm     73 % 0 mm 239.00 W/m2 CLR
13:59 -13.2 °C -15.7 °C 34720 hPa Calm     73 % 0 mm 257.00 W/m2 CLR
14:04 -13.2 °C -15.6 °C 34716.7 hPa Calm     74 % 0 mm 244.00 W/m2 CLR
14:09 -13.4 °C -15.9 °C 34713.3 hPa Calm     74 % 0 mm 260.00 W/m2 CLR
14:14 -13.4 °C -15.8 °C 34709.9 hPa Calm     75 % 0 mm 225.00 W/m2 CLR
14:19 -13.4 °C -15.8 °C 34706.5 hPa Calm     75 % 0 mm 399.00 W/m2 CLR
14:24 -13.4 °C -15.6 °C 34703.1 hPa Calm     77 % 0 mm 413.00 W/m2 CLR
14:29 -13.2 °C -15.4 °C 34699.7 hPa Calm     76 % 0 mm 381.00 W/m2 CLR
14:34 -13.2 °C -15.4 °C 34696.3 hPa Calm     75 % 0 mm 290.00 W/m2 CLR
14:39 -13.2 °C -15.4 °C 34696.3 hPa Calm     76 % 0 mm 288.00 W/m2 CLR
14:44 -13.2 °C -15.4 °C 34696.3 hPa Calm     76 % 0 mm 183.00 W/m2 CLR
14:49 -13.2 °C -15.4 °C 34693 hPa Calm     76 % 0 mm 174.00 W/m2 CLR
14:54 -13.2 °C -15.4 °C 34693 hPa Calm     76 % 0 mm 193.00 W/m2 CLR
14:59 -13.2 °C -15.2 °C 34693 hPa Calm     77 % 0 mm 278.00 W/m2 CLR
15:04 -13.2 °C -15.2 °C 34693 hPa Calm     77 % 0 mm 244.00 W/m2 CLR
15:09 -13.2 °C -15.4 °C 34689.6 hPa Calm     76 % 0 mm 206.00 W/m2 CLR
15:14 -13.2 °C -15.2 °C 34689.6 hPa Calm     77 % 0 mm 179.00 W/m2 CLR
15:19 -13.2 °C -15.4 °C 34686.2 hPa Calm     76 % 0 mm 153.00 W/m2 CLR
15:24 -13.2 °C -15.4 °C 34679.4 hPa Calm     76 % 0 mm 142.00 W/m2 CLR
15:29 -13.2 °C -15.2 °C 34679.4 hPa Calm     77 % 0 mm 176.00 W/m2 CLR
15:34 -13.2 °C -15.2 °C 34682.8 hPa Calm     77 % 0 mm 156.00 W/m2 CLR
15:39 -13.2 °C -15.2 °C 34682.8 hPa Calm     77 % 0 mm 118.00 W/m2 CLR
15:44 -13.2 °C -15.2 °C 34682.8 hPa Calm     77 % 0 mm 113.00 W/m2 CLR
15:49 -13.2 °C -15.2 °C 34679.4 hPa Calm     77 % 0 mm 114.00 W/m2 CLR
15:54 -13.2 °C -15.2 °C 34682.8 hPa Calm     78 % 0 mm 113.00 W/m2 CLR
15:59 -13.2 °C -15.2 °C 34682.8 hPa Calm     78 % 0 mm 109.00 W/m2 CLR
16:04 -13.2 °C -15.2 °C 34682.8 hPa Calm     78 % 0 mm 100.00 W/m2 CLR
16:09 -13.2 °C -15.1 °C 34686.2 hPa Calm     79 % 0 mm 91.00 W/m2 CLR
16:14 -13.2 °C -14.9 °C 34682.8 hPa Calm     80 % 0 mm 81.00 W/m2 CLR
16:19 -13.4 °C -15.2 °C 34682.8 hPa Calm     80 % 0 mm 74.00 W/m2 FEW
16:24 -13.4 °C -15.2 °C 34682.8 hPa Calm     80 % 0 mm 65.00 W/m2 FEW
16:29 -13.4 °C -15.2 °C 34679.4 hPa Calm     81 % 0 mm 56.00 W/m2 FEW
16:34 -13.4 °C -15.2 °C 34682.8 hPa Calm     81 % 0 mm 51.00 W/m2 SCT
16:39 -13.4 °C -15.2 °C 34686.2 hPa Calm     81 % 0 mm 47.00 W/m2 SCT
16:44 -13.8 °C -15.4 °C 34689.6 hPa Calm     82 % 0 mm 40.00 W/m2 BKN
16:49 -13.8 °C -15.4 °C 34693 hPa Calm     82 % 0 mm 32.00 W/m2 BKN
16:54 -14.1 °C -15.6 °C 34689.6 hPa Calm     83 % 0 mm 26.00 W/m2 BKN
16:59 -14.1 °C -15.6 °C 34682.8 hPa Calm     83 % 0 mm 21.00 W/m2 BKN
17:04 -14.1 °C -15.4 °C 34689.6 hPa Calm     84 % 0 mm 16.00 W/m2 BKN
17:09 -14.1 °C -15.4 °C 34682.8 hPa Calm     84 % 0 mm 12.00 W/m2 BKN
17:14 -14.4 °C -15.7 °C 34686.2 hPa Calm     85 % 0 mm 11.00 W/m2 BKN
17:19 -14.4 °C -15.7 °C 34686.2 hPa Calm     85 % 0 mm 7.00 W/m2 BKN
17:24 -14.7 °C -16 °C 34686.2 hPa Calm     85 % 0 mm 5.00 W/m2 OVC
17:29 -14.7 °C -16 °C 34686.2 hPa Calm     85 % 0 mm 0.00 W/m2 OVC
17:34 -15 °C -16.2 °C 34686.2 hPa Calm     86 % 0 mm 0.00 W/m2 OVC
17:39 -15 °C -16.2 °C 34686.2 hPa Calm     86 % 0 mm 0.00 W/m2 OVC
17:44 -15 °C -16.2 °C 34689.6 hPa Calm     86 % 0 mm 0.00 W/m2 CLR
17:49 -15.3 °C -16.5 °C 34693 hPa Calm     86 % 0 mm 0.00 W/m2 CLR
17:54 -15.3 °C -16.4 °C 34696.3 hPa Calm     87 % 0 mm 0.00 W/m2 CLR
17:59 -15.3 °C -16.4 °C 34703.1 hPa Calm     87 % 0 mm 0.00 W/m2 CLR
18:04 -15.3 °C -16.3 °C 34706.5 hPa Calm     88 % 0 mm 0.00 W/m2 CLR
18:09 -15.3 °C -16.3 °C 34706.5 hPa Calm     88 % 0 mm 0.00 W/m2 CLR
18:14 -15 °C -16 °C 34703.1 hPa Calm     88 % 0 mm 0.00 W/m2 CLR
18:19 -15 °C -16 °C 34709.9 hPa Calm     88 % 0 mm 0.00 W/m2 CLR
18:24 -15 °C -16 °C 34709.9 hPa Calm     88 % 0 mm 0.00 W/m2 CLR
18:29 -15 °C -16 °C 34713.3 hPa Calm     88 % 0 mm 0.00 W/m2 CLR
18:34 -15 °C -15.9 °C 34713.3 hPa Calm     89 % 0 mm 0.00 W/m2 CLR
18:39 -15 °C -15.9 °C 34713.3 hPa Calm     89 % 0 mm 0.00 W/m2 CLR
18:44 -15.3 °C -16.2 °C 34713.3 hPa Calm     89 % 0 mm 0.00 W/m2 CLR
18:49 -15.3 °C -16.2 °C 34709.9 hPa Calm     89 % 0 mm 0.00 W/m2 CLR
18:54 -15.6 °C -16.6 °C 34709.9 hPa Calm     89 % 0 mm 0.00 W/m2 CLR
18:59 -15.6 °C -16.6 °C 34716.7 hPa Calm     89 % 0 mm 0.00 W/m2 CLR
19:04 -15.6 °C -16.6 °C 34716.7 hPa Calm     89 % 0 mm 0.00 W/m2 CLR
19:09 -15.9 °C -16.8 °C 34716.7 hPa Calm     89 % 0 mm 0.00 W/m2 CLR
19:14 -15.9 °C -16.8 °C 34723.4 hPa Calm     89 % 0 mm 0.00 W/m2 CLR
Lo Temps de Massalio
Compliments of Weather Underground - 1 mb